Location: ????????
(55.6773°N, 38.2421°E)
Time: 07:58:32
(UTC+00:00)

SL-16 R/B - Pass Details

Date: 23 May 2024
Orbit: 985 x 1007 km, 99.7° (Epoch: 23 June)

Event Time Altitude Azimuth Distance (km) Brightness Sun altitude
Rises 00:04:18 0° 169° (S) 3,724 5.1 -6.5°
Reaches altitude 10° 00:06:47 10° 172° (S) 2,779 4.5 -6.2°
Maximum altitude 00:13:01 67° 255° (WSW) 1,090 2.6 -5.7°
Drops below altitude 10° 00:19:17 10° 338° (NNW) 2,795 5.3 -5.1°
Sets 00:21:49 0° 342° (NNW) 3,748 6.0 -4.9°
